Terminal Aerodrome Forecast
Issued by NWS St Louis, MO

Home | Current Version | Previous Version | Text Only | Print | Product List | Glossary On
Versions: 1 2 3 4 5 6 7 8 9 10 11 12 13 14 15 16 17 18 19 20 21 22 23 24 25 26
000
FTUS43 KLSX 181000 AAB
TAFSTL
TAF AMD
KSTL 181053Z 1811/1912 VRB03KT P6SM OVC024
     FM181400 11007KT P6SM OVC030
     FM181800 09008KT P6SM SCT035=

USA.gov is the U.S. government's official web portal to all federal, state and local government web resources and services.